Firefly 5

operational
NORAD ID: 65322 Int'l Des: 2025-188 Owner: PIXX Country: IN
LEOCIRCULARRETROGRADESSO

About Firefly 5

Description loading...

Live Position

Loading 3D Globe...

Upcoming Passes

Altitude History

Altitude vs Time

uPlot chart will show altitude changes over time

Two-Line Element Set

1 65322U 25188H 25312.82339872 .00004364 00000-0 42695-3 0 9993
2 65322 97.7604 26.5120 0014288 133.0847 227.1571 14.92767273 11036
Epoch: Nov 8, 2025 • Age: 34 hours

Current Status

Altitude 617.6 km
Velocity 7.54 km/s
Sub-Earth Point -47.41°S, 93.22°W
Launch Date Aug 26, 2025
Age 0.2 years
Type other

Technical Details

Classification Payload
Mass 60.00 kg
Dry Mass 60.00 kg
Total Mass 60.00 kg
Length 0.50 m
Diameter 0.30 m
Span 2.00 m
Shape Box + 2 pan
Manufacturer PIXX
Bus Type Firefly
Phase Status In Orbit
Owner/State PIXX/IN

Large Constellations

Loading constellations...